Regional Weather Roundup
Issued by NWS

Home | Current Version | Previous Version | Text Only | Print | Product List | Glossary On
Versions: 1 2 3 4 5 6 7 8 9 10 11 12 13 14 15 16 17 18 19 20 21 22 23 24 25 26 27
000
ASUS44 KJAN 021910
RWRMS

MISSISSIPPI HOURLY WEATHER ROUNDUP
NATIONAL WEATHER SERVICE JACKSON MS
100 PM CST FRI DEC 02 2016

NOTE: "FAIR: INDICATES FEW OR NO CLOUDS BELOW 12,000 FEET WITH NO
SIGNIFICANT WEATHER AND/OR OBSTRUCTIONS TO VISIBILITY.

MSZ001>002-007>008-010>013-018>021-025>028-034>036-022000-
NORTHWEST MISSISSIPPI

CITY           SKY/WX    TMP DP  RH WIND       PRES   REMARKS
CLEVELAND      FAIR      62  32  32 S6        30.24F
GREENWOOD      MOSUNNY   62  25  24 E3        30.24F
GREENVILLE     MOSUNNY   61  28  28 SE6       30.24F
OXFORD         FAIR      61  25  25 N6        30.26F
WINONA         FAIR      59  28  30 SE3       30.24F
$$

MSZ003>006-009-014>017-022>024-029>033-037>039-022000-
NORTHEAST MISSISSIPPI

CITY           SKY/WX    TMP DP  RH WIND       PRES   REMARKS
COLUMBUS AFB   SUNNY     61  30  31 CALM      30.25F
GOLDN TRIANGLE MOSUNNY   61  25  25 NE8       30.22
STARKVILLE     FAIR      61  28  29 E7        30.26F
TUPELO         SUNNY     61  23  23 VRB3      30.24F
$$

MSZ040-058-022000-
CENTRAL MISSISSIPPI

CITY           SKY/WX    TMP DP  RH WIND       PRES   REMARKS
JACKSON INTL   PTSUNNY   64  28  25 E9        30.21F
JACKSON HAWKNS SUNNY     65  26  23 E9        30.21F
MADISON        FAIR      61  30  31 NE3       30.21F
MERIDIAN KEY   SUNNY     65  27  23 E9        30.24F
MERIDIAN NAS   PTSUNNY   64  24  21 N8        30.26F
VICKSBURG VKS  CLEAR     66  27  22 SE9G17    30.19F
$$

MSZ059>079-022000-
SOUTH MISSISSIPPI

CITY           SKY/WX    TMP DP  RH WIND       PRES   REMARKS
BROOKHAVEN     FAIR     N/A N/A N/A CALM      30.21F
COLUMBIA       FAIR      63  30  29 E10       30.23F
HATTIESBURG    PTSUNNY   64  28  25 E10       30.22F
LAUREL         FAIR      63  27  25 E9        30.23S
MCCOMB         PTSUNNY   62  27  26 SE7       30.20S
NATCHEZ        MOSUNNY   63  28  27 E7        30.19F
PINE BELT      SUNNY     63  28  27 E10       30.23F
$$

MSZ080>082-022000-
COASTAL MISSISSIPPI

CITY           SKY/WX    TMP DP  RH WIND       PRES   REMARKS
BAY ST LOUIS   SUNNY     66  23  19 NE8       30.20R
BILOXI         PTSUNNY   66  32  27 E12       30.18F
PASCAGOULA     MOSUNNY   64  28  25 NE9       30.19F
GULFPORT       PTSUNNY   66  32  28 E13G22    30.18F
$$

LAZ007>009-015>016-023>026-022000-
NORTHEAST LOUISIANA

CITY           SKY/WX    TMP DP  RH WIND       PRES   REMARKS
BASTROP        FAIR      64  30  28 NE6       30.22F
TALLULAH/VBURG CLOUDY    66  30  26 E12       30.20F
VIDALIA        FAIR      64  32  30 E8        30.21F
$$




USA.gov is the U.S. government's official web portal to all federal, state and local government web resources and services.